TimeEDT,TemperatureF,Dew PointF,Humidity,Sea Level PressureIn,VisibilityMPH,Wind Direction,Wind SpeedMPH,Gust SpeedMPH,PrecipitationIn,Events,Conditions,WindDirDegrees,DateUTC
12:53 AM,42.1,37.9,85,30.09,10.0,Calm,Calm,-,N/A,,Clear,0,2013-05-17 04:53:00
1:53 AM,39.9,37.0,89,30.08,10.0,Calm,Calm,-,N/A,,Clear,0,2013-05-17 05:53:00
2:53 AM,39.9,37.0,89,30.09,10.0,Calm,Calm,-,N/A,,Clear,0,2013-05-17 06:53:00
3:53 AM,39.9,37.0,89,30.10,10.0,Calm,Calm,-,N/A,,Clear,0,2013-05-17 07:53:00
4:53 AM,39.0,36.0,89,30.09,10.0,Calm,Calm,-,N/A,,Clear,0,2013-05-17 08:53:00
5:53 AM,43.0,39.9,89,30.11,10.0,Calm,Calm,-,N/A,,Overcast,0,2013-05-17 09:53:00
6:53 AM,42.1,39.9,92,30.12,10.0,East,3.5,-,N/A,,Overcast,100,2013-05-17 10:53:00
7:53 AM,46.0,41.0,83,30.14,10.0,Calm,Calm,-,N/A,,Overcast,0,2013-05-17 11:53:00
8:53 AM,48.0,39.9,74,30.16,10.0,ENE,3.5,-,N/A,,Overcast,60,2013-05-17 12:53:00
9:53 AM,48.9,41.0,74,30.19,10.0,NW,5.8,-,N/A,,Overcast,310,2013-05-17 13:53:00
10:53 AM,52.0,42.1,69,30.19,10.0,East,4.6,-,N/A,,Overcast,80,2013-05-17 14:53:00
11:53 AM,54.0,42.1,64,30.19,10.0,Calm,Calm,-,N/A,,Overcast,0,2013-05-17 15:53:00
12:53 PM,57.0,42.1,57,30.19,10.0,Calm,Calm,-,N/A,,Overcast,0,2013-05-17 16:53:00
1:53 PM,62.1,43.0,50,30.18,10.0,Calm,Calm,-,N/A,,Overcast,0,2013-05-17 17:53:00
3:53 PM,62.1,44.1,52,30.17,10.0,NNW,4.6,-,0.00,,Overcast,340,2013-05-17 19:53:00
4:53 PM,59.0,43.0,55,30.15,10.0,NE,3.5,-,N/A,,Overcast,40,2013-05-17 20:53:00
5:53 PM,57.9,46.9,67,30.12,10.0,ENE,4.6,-,0.00,,Overcast,70,2013-05-17 21:53:00
6:53 PM,57.0,44.1,62,30.12,10.0,Calm,Calm,-,N/A,,Overcast,0,2013-05-17 22:53:00
7:53 PM,57.9,48.0,70,30.14,10.0,Calm,Calm,-,N/A,,Overcast,0,2013-05-17 23:53:00
8:53 PM,57.0,46.9,69,30.14,10.0,Variable,3.5,-,N/A,,Overcast,0,2013-05-18 00:53:00
9:53 PM,57.0,45.0,64,30.16,10.0,Calm,Calm,-,N/A,,Overcast,0,2013-05-18 01:53:00
10:53 PM,57.0,44.1,62,30.17,10.0,SSE,3.5,-,N/A,,Overcast,160,2013-05-18 02:53:00
11:53 PM,55.9,42.1,60,30.17,10.0,East,4.6,-,N/A,,Overcast,100,2013-05-18 03:53:00